Location: Woodstock
(43.1330°N, 80.7500°W)
Time: 15:52:47
(UTC-04:00)

Daily predictions for brighter satellites

Satellite Brightness Start Highest point End
(mag) Time Altitude Azimuth Time Altitude Azimuth Time Altitude Azimuth
BREEZE-M DEB (TANK) 2.9 20:41:42 10° SSW 20:44:17 40° SE 20:50:18 10° ENE
NOSS 3-1 (A) 4.2 20:40:14 10° SW 20:45:58 59° NW 20:52:29 10° NNE
BREEZE-M DEB (TANK) 3.2 20:43:14 10° WNW 20:46:10 67° SSW 20:56:55 10° SE
H-2A R/B 3.8 20:45:11 10° S 20:48:52 48° W 20:52:32 10° NNW
NOSS 2-3 (E) 4.2 20:45:05 10° S 20:49:28 42° ESE 20:54:29 10° NE
Helios 1B rocket 4.0 20:51:23 10° NE 20:54:05 17° E 20:56:46 10° SE
ALOS 4.5 20:50:13 10° SSW 20:54:13 28° W 20:58:15 10° NW
Cosmos 839 Rocket 4.1 20:48:21 10° SSW 20:54:36 89° WNW 21:00:57 10° NNE
Resurs 1-3 3.6 20:52:19 10° SSE 20:56:42 82° ENE 21:01:07 10° N
USA 186 1.8 20:53:28 10° SSE 20:56:49 73° ENE 21:00:12 10° N
Lacrosse 5 2.4 20:53:03 10° SSW 20:57:40 37° SE 21:02:19 10° ENE
Cosmos 1452 Rocket 3.8 20:52:55 10° SSW 20:58:11 75° WNW 21:03:30 10° NNE
Cosmos 1850 Rocket 4.1 20:53:47 10° NNW 20:59:06 63° ENE 21:04:20 10° SSE
Cosmos 1420 Rocket 3.9 20:54:17 10° SSW 20:59:26 80° ESE 21:04:39 10° NNE
Atlas Centaur 2 4.0 20:55:37 10° WSW 21:02:41 31° S 21:08:53 11° SE
SL-8 R/B 4.4 21:00:51 10° WNW 21:05:30 49° N 21:10:10 10° E
SeaSat 1 2.7 21:03:13 10° NE 21:08:00 47° ESE 21:12:44 10° S
Cosmos 1602 4.1 21:07:51 10° SSW 21:11:40 68° W 21:15:30 10° N
Cosmos 1607 4.1 21:06:06 10° NNW 21:12:33 66° NE 21:18:19 13° SE
Cosmos 220 Rocket 4.4 21:13:03 10° N 21:17:13 46° ENE 21:20:29 16° SE
Okean 1 Rocket 3.4 21:13:42 10° SSE 21:17:47 42° E 21:21:56 10° NNE
Cosmos 2263 Rocket 2.2 21:12:51 10° NNW 21:18:35 77° ENE 21:23:58 12° SSE
Cosmos 1300 Rocket 3.5 21:14:26 10° S 21:18:40 65° E 21:22:58 10° NNE
Cosmos 1025 Rocket 3.8 21:16:46 10° N 21:20:38 33° ENE 21:23:14 18° SE
Cosmos 2278 Rocket 4.5 21:20:19 10° NNE 21:20:57 10° NE 21:21:36 10° NE
Okean 2 4.4 21:19:07 10° NNE 21:22:43 29° ENE 21:24:45 19° ESE
NOSS 2-3 (C) 3.8 21:18:21 10° SSW 21:23:02 81° SE 21:28:32 10° NE
Cosmos 2322 Rocket 2.3 21:17:35 10° SSW 21:23:17 84° WNW 21:29:02 10° NNE
Meteor 1-11 Rocket 3.8 21:19:02 10° S 21:24:53 86° W 21:30:38 10° N
YAOGAN 6 2.7 21:22:14 15° SSE 21:24:58 54° ENE 21:28:25 10° N
Cosmos 1844 Rocket 4.2 21:20:46 10° N 21:25:12 23° NE 21:28:30 14° E
Tiangong 1 1.4 21:22:58 10° W 21:25:37 42° SSW 21:26:47 26° SE
S3M 4.3 21:19:24 10° NNW 21:25:40 72° W 21:31:58 10° S
SJ-11-01 4.2 21:21:25 10° SSE 21:26:04 78° ENE 21:30:45 10° N
Cosmos 1553 Rocket 4.4 21:20:45 10° NNW 21:26:50 64° W 21:32:49 10° S
Okean 1-7 Rocket 4.1 21:26:01 10° N 21:30:17 41° ENE 21:32:58 20° SE
Spot 2 Rocket 4.3 21:26:29 10° S 21:31:26 51° W 21:36:25 10° NNW
Cosmos 2266 Rocket 3.8 21:25:49 10° S 21:31:50 74° E 21:37:52 10° N
Resurs 01 Rocket 3.1 21:28:39 10° SSW 21:32:47 38° W 21:36:57 10° NNW
Abrixas rocket 3.7 21:32:00 10° WNW 21:35:00 32° N 21:37:17 15° ENE
USA 238 DEB 4.2 21:28:10 10° NNW 21:35:05 51° NE 21:39:58 20° ESE
USA 238 4.2 21:28:16 10° NNW 21:35:10 51° NE 21:40:03 20° ESE
SL-16 R/B 2.6 21:29:52 10° SSW 21:35:30 68° WNW 21:41:11 10° NNE
Cosmos 2315 Rocket 4.1 21:32:16 10° N 21:38:26 58° E 21:43:24 16° SSE
Cosmos 1975 4.3 21:40:38 20° E 21:40:38 20° E 21:43:25 10° NE
Cosmos 2219 Rocket 3.9 21:42:46 14° E 21:42:46 14° E 21:44:26 10° ENE
Meteor 1-23 Rocket 4.1 21:36:15 10° N 21:41:51 86° E 21:47:02 12° S
EXPRESS MD2 4.0 21:39:32 10° W 21:42:16 48° NNW 21:47:06 10° ENE
Helios 1A 2.9 21:41:23 18° SSE 21:44:33 85° ENE 21:48:49 10° NNW
Cosmos 2322 3.8 21:41:24 10° S 21:46:50 51° ESE 21:52:19 10° NE
ERS-1 Rocket 3.1 21:46:40 24° SE 21:49:30 56° ENE 21:54:26 10° N
ATLAS 3B R/B 2.7 21:43:17 10° NNW 21:50:02 67° NE 21:53:56 26° SE
Cosmos 1500 3.7 21:52:07 35° ESE 21:52:38 37° E 21:56:15 10° NNE
USA 245 4.5 21:51:09 28° ESE 21:52:44 35° ENE 21:56:34 10° N
Meteor 1-29 2.9 21:49:35 10° NNE 21:52:58 57° ESE 21:54:01 37° SSE
Cosmos 2360 Rocket 2.1 21:50:19 10° SSW 21:55:55 74° ESE 22:01:33 10° NNE
COSMOS 2428 3.3 21:55:48 27° SE 21:57:50 34° ESE 22:02:57 10° NE
Cosmos 1939 Rocket 4.1 21:54:07 10° SSW 21:57:51 40° W 22:01:35 10° NNW
Cosmos 1536 4.1 21:55:29 10° SSW 21:59:21 42° WNW 22:03:14 10° N
Envisat 4.5 21:56:13 10° SSW 22:00:49 35° W 22:05:28 10° NNW
H-2A R/B 2.5 22:08:23 34° ESE 22:09:40 41° ENE 22:14:19 10° N
Cosmos 1892 Rocket 3.8 22:05:21 10° N 22:09:41 50° ENE 22:10:26 44° ESE
Cosmos 2333 Rocket 3.8 22:13:04 18° ENE 22:13:04 18° ENE 22:15:23 10° NE
Cosmos 1238 Rocket 4.1 22:06:03 10° N 22:12:46 65° E 22:15:42 33° SSE
SAR-Lupe-4 3.5 22:12:33 52° S 22:13:20 79° WSW 22:16:57 10° NNW
NOAA 11 4.3 22:12:03 25° S 22:15:23 79° WSW 22:20:55 10° NNW
CZ-4B DEB 3.4 22:15:44 42° WSW 22:15:58 43° W 22:18:44 10° NNW
Cosmos 2333 4.4 22:16:47 38° SE 22:18:13 46° ESE 22:23:33 10° NE
Cosmos 1302 Rocket 3.9 22:19:34 29° S 22:22:11 65° ESE 22:27:25 10° NNE
Cosmos 1544 Rocket 3.6 22:24:22 56° ESE 22:24:30 56° E 22:28:53 10° NNE
Cosmos 1486 Rocket 3.9 22:19:35 10° NNW 22:24:51 73° ENE 22:26:11 49° SE
MetOp-A 4.2 22:24:43 34° S 22:27:10 76° WSW 22:32:32 10° NNW
Aureole 3 Rocket 4.2 22:18:49 10° N 22:27:22 79° E 22:30:15 37° SSE
Cosmos 2237 Rocket 4.1 22:30:37 14° ENE 22:30:37 14° ENE 22:31:49 10° NE
Cosmos 405 3.1 22:28:31 68° NNE 22:28:31 68° NNE 22:31:42 10° N
Helios 1B rocket 3.7 22:25:42 10° N 22:29:34 41° WNW 22:33:25 10° SW
ATLAS 2AS CENTAUR R/B 3.5 22:21:55 10° SW 22:29:36 63° NW 22:37:43 10° NNE
SAR-Lupe-1 4.4 22:29:54 55° SW 22:30:12 57° W 22:33:46 10° NNW
BREEZE M DEB (TANK) 2.6 22:27:46 10° SW 22:33:38 58° SSW 22:33:38 58° SSW
SPOT 5 2.7 22:33:36 59° SSE 22:34:30 82° ENE 22:39:10 10° NNW
Cosmos 1241 Rocket 4.4 22:28:43 10° SSW 22:35:13 70° ESE 22:41:41 10° NE
Cosmos 1455 Rocket 3.0 22:37:04 66° E 22:37:04 66° E 22:41:20 10° NNE
CENTAUR R/B 4.2 22:32:10 10° NNW 22:38:51 31° NE 22:43:21 20° E
Cosmos 1066 Rocket 4.1 22:34:20 10° N 22:39:47 89° W 22:41:15 51° S
NOSS 3-4 (A) 4.1 22:41:26 38° E 22:41:26 38° E 22:46:12 10° NE
NOSS 3-4 (C) 4.1 22:41:38 37° E 22:41:38 37° E 22:46:18 10° NE
Lacrosse 5 2.9 22:35:42 10° WSW 22:40:34 45° NW 22:45:28 10° NE
SL-8 R/B 3.6 22:43:28 10° WNW 22:48:14 71° SSW 22:48:14 71° SSW
SL-08 RB Rocket 3.8 22:49:38 61° SW 22:50:08 67° WSW 22:54:40 10° NNW
Atlas Centaur 2 4.3 22:46:12 10° WSW 22:51:06 18° SSW 22:51:30 18° SSW
ARGOS 3.6 22:49:54 39° SSW 22:51:37 57° W 22:56:55 10° NNW
Nadezhda 1 Rocket 4.0 22:45:33 10° N 22:51:52 72° E 22:53:09 57° SE
Cosmos 1743 3.9 22:56:16 36° NNE 22:56:16 36° NNE 22:58:38 10° N
Landsat 7 3.8 23:01:05 76° NE 23:01:05 76° NE 23:05:36 10° N
Meteor 1-21 4.1 22:55:21 10° N 23:00:58 67° ENE 23:01:12 66° E
Cosmos 1354 Rocket 3.9 22:57:14 10° NNW 23:02:36 81° ENE 23:02:44 80° E
DMSP B5D2-2 4.0 22:57:46 10° NNE 23:02:48 71° E 23:02:48 71° E
Cosmos 2278 Rocket 2.5 23:00:57 10° NNW 23:06:30 50° ENE 23:06:39 50° ENE
CARTOSAT-1 4.3 23:10:33 48° NNE 23:10:33 48° NNE 23:13:48 10° N
Cosmos 1844 Rocket 2.8 23:03:57 10° NNW 23:09:34 63° WSW 23:10:09 59° SW
Cosmos 1709 Rocket 4.3 23:10:41 50° ENE 23:10:41 50° ENE 23:16:17 10° NNE
SPOT 1/Viking Rocket 3.8 23:10:41 57° SW 23:11:12 60° W 23:16:23 10° NNW
Cosmos 1818 3.7 23:10:06 34° SW 23:12:31 71° NW 23:17:58 10° NNE
Terra 2.1 23:16:55 62° N 23:16:55 62° N 23:20:56 10° N
Cosmos 1975 4.5 23:16:24 29° W 23:16:46 29° WNW 23:20:18 10° NNW
Nimbus 7 Rocket 4.4 23:12:36 10° NNE 23:18:29 75° WNW 23:19:44 56° SW
Cosmos 1602 Rocket 4.4 23:16:42 10° N 23:19:50 47° NNW 23:19:50 47° NNW
H-2A R/B 3.4 23:23:50 33° NNE 23:23:50 33° NNE 23:26:36 10° N
Cosmos 1503 Rocket 4.2 23:18:23 10° NNW 23:23:33 67° W 23:23:33 67° W
BREEZE-M DEB 4.2 23:18:20 10° WNW 23:22:33 39° WNW 23:22:33 39° WNW
NOSS 3-2 (A) 4.0 23:16:31 10° NW 23:24:03 73° WSW 23:25:38 59° S
Cosmos 2219 Rocket 2.2 23:24:25 78° W 23:24:37 80° WNW 23:30:19 10° NNE
Cosmos 724 4.3 23:21:04 10° NW 23:26:49 68° WSW 23:26:49 68° WSW
Meteor 2-9 Rocket 4.3 23:27:37 67° NE 23:27:37 67° NE 23:32:36 10° NNE
SL-16 R/B 4.1 23:39:44 18° NE 23:39:44 18° NE 23:41:21 10° NE
ATLAS 3B R/B 4.0 23:34:56 10° WNW 23:40:06 24° WSW 23:41:11 23° SW
COSMOS 2428 4.0 23:37:40 15° WSW 23:42:01 38° WNW 23:47:21 10° N
H-2A R/B 3.7 23:49:01 24° W 23:49:13 24° W 23:53:16 10° NW
NOSS 0 Rocket 4.0 23:51:55 76° NW 23:51:55 76° NW 23:58:03 10° NNE
ATLAS CENTAUR R/B 3.9 23:52:17 10° N 23:53:18 16° N 23:53:18 16° N
